Regional Weather Roundup
Issued by NWS Charleston, SC

Current Version | Previous Version | Text Only | Print | Product List | Glossary Off
Versions: 1 2 3 4 5 6 7 8 9 10 11 12 13 14 15 16 17 18 19 20 21 22 23 24 25 26 27 28 29 30 31 32 33 34 35 36 37 38 39 40 41 42 43 44 45 46 47 48 49 50
000 ASUS42 KCHS 130628 RWRCHS REGIONAL WEATHER ROUNDUP NATIONAL WEATHER SERVICE CHARLESTON SC 100 AM EST SAT FEB 13 2016 NOTE: "FAIR" INDICATES FEW OR NO CLOUDS BELOW 12,000 FEET WITH NO SIGNIFICANT WEATHER AND/OR OBSTRUCTIONS TO VISIBILITY. NOT ALL STATIONS ARE QUALITY CONTROLLED BY THE NATIONAL WEATHER SERVICE. USE DATA WITH CAUTION...ESPECIALLY DEWPOINT OBSERVATIONS. SCZ027-030-031-034>040-042>050-130700- ...SOUTHEAST SOUTH CAROLINA... CITY SKY/WX TMP DP RH WIND PRES REMARKS N CHARLESTON CLEAR 37 34 89 NW6 30.09R WCI 32 6HR MIN TEMP: 37; 6HR MAX TEMP: 47; WATERFRONT PRK N/A 44 43 96 CALM 29.91R MOUNT PLEASANT FAIR 37 37 100 CALM 30.09R JOHNS ISLAND FAIR 39 39 100 N7 30.09R WCI 34 PINOPOLIS N/A 43 37 81 W7 29.98F MONCKS CORNER FAIR 32 30 93 CALM 30.08S SUMMERVILLE FAIR 36 36 100 SW3 30.10S BEAUFORT MCAS CLEAR 44 42 93 NW8 30.10R FOG 6HR MIN TEMP: 40; 6HR MAX TEMP: 56; BEAUFORT ARPT FAIR 45 45 100 W8 30.08R FOG HILTON HEAD IS CLEAR 48 48 100 NW9 30.10R WALTERBORO CLEAR 37 37 100 NW3 30.10S ALLENDALE FAIR 45 34 65 CALM 30.10S ...SOUTHERN MIDLANDS AND PEE DEE... CITY SKY/WX TMP DP RH WIND PRES REMARKS GEORGETOWN FAIR 32 32 100 CALM 30.08R KINGSTREE FAIR 30 28 93 CALM 30.09S ORANGEBURG CLEAR 42 32 67 NW8 30.08S 6HR MIN TEMP: 35; 6HR MAX TEMP: 47; BARNWELL FAIR 45 32 61 NW8 30.10S AIKEN FAIR 39 30 70 W9 30.12S WCI 33 MANNING FAIR 30 28 93 CALM 30.09R COLUMBIA CLEAR 32 27 81 CALM 30.08S 6HR MIN TEMP: 31; 6HR MAX TEMP: 45; SUMTER CLEAR 31 26 80 W2 30.06R 6HR MIN TEMP: 30; 6HR MAX TEMP: 39; FLORENCE CLEAR 27 26 96 W3 30.07S 6HR MIN TEMP: 27; 6HR MAX TEMP: 35; MYRTLE BEACH CLEAR 34 23 64 NW6 30.08S WCI 29 N MYRTLE BEACH CLEAR 32 28 85 N3 30.05S 6HR MIN TEMP: 29; 6HR MAX TEMP: 38; $$ GAZ063-065-086>088-099>101-113>116-118-119-134>141-150-130700- ...SOUTHEAST GEORGIA... CITY SKY/WX TMP DP RH WIND PRES REMARKS SAVANNAH ARPT CLEAR 48 45 89 W6 30.10R 6HR MIN TEMP: 48; 6HR MAX TEMP: 59; HUNTER AAF CLEAR 49 45 88 W6 30.07R 6HR MIN TEMP: 49; 6HR MAX TEMP: 58; FORT STEWART CLEAR 52 43 73 NW2 30.08R 6HR MIN TEMP: 51; 6HR MAX TEMP: 61; STATESBORO CLEAR 49 34 54 NW7 30.12R SYLVANIA CLEAR 47 39 73 N7 30.12S CLAXTON FAIR 53 41 64 W10G17 30.13R ...CSRA...CENTRAL AND FAR SOUTHEAST GEORGIA... CITY SKY/WX TMP DP RH WIND PRES REMARKS THOMSON CLEAR 43 33 69 W5 30.16F AUGUSTA-BUSH CLEAR 45 30 55 NW14G22 30.12R 6HR MIN TEMP: 37; 6HR MAX TEMP: 49; AUGUSTA-DANIEL CLEAR 45 28 51 NW9 30.11S SWAINSBORO FAIR 45 36 70 NW6 30.14R VIDALIA CLEAR 52 37 58 NW10 30.13R EASTMAN FAIR 52 32 47 NW5 30.17S HAZLEHURST FAIR 55 37 51 NW8 30.13R ALMA CLEAR 57 39 51 W10 30.12R 6HR MIN TEMP: 56; 6HR MAX TEMP: 64; WAYCROSS CLEAR 58 47 67 NW7 30.13R JESUP FAIR 59 46 63 NW7 30.12R BAXLEY FAIR 55 41 58 NW5 30.13R BRUNSWICK CLEAR 55 50 82 W7 30.11S SAINT SIMONS CLEAR 55 52 89 SW7 30.10R 6HR MIN TEMP: 54; 6HR MAX TEMP: 67; $$ SCZ027-028-034-036>038-045-046-048>050-GAZ119-141-130700- ...LAKE AND SUPPLEMENTAL COASTAL OBSERVATIONS... STATION/POSITION TIME TEMP WIND PRES WAVE SWELL AIR SEA DIR/SP/G HT/PER HT/PER/DIR (UTC) (F) (DEG/KT/KT) (MB) (FT/S) (FT/S/D) WINYAH BAY 0500 36 290/ 2 1016.0 LAKE MURRAY 0500 38 CALM / 1 1018.3R ACE BASIN NERRS 0500 42 CALM 1018.0S FORT PULASKI 0600 51 51 290/ 6/ 6 1019.0R SAPELO ISLAND 0600 54 250/ 6 1019.0S $$ ANZ835-935-AMZ111-154-330-350-352-354-370-450-454-472-130700- ...C-MAN AND BUOY OBSERVATIONS... STATION/POSITION TIME TEMP WIND PRES WAVE SWELL AIR SEA DIR/SP/G HT/PER HT/PER/DIR (UTC) (F) (DEG/KT/KT) (MB) (FT/S) (FT/S/D) BUOY 41004 0550 56 68 290/ 8/ 10 1017.0F 4/ 6 3/ 6 BUOY 41008 0550 55 53 250/ 10/ 12 1018.5R 3/ 5 2/150/ 5 FOLLY BEACH CMAN 0600 44 330/ 3/ 4 1018.4R CAPERS NEARSHORE 0508 47 250/ 2/ 4 1017.1S FRIPP NEARSHORE 0500 47 20/ 4/ 6 1017.7R STATION/POSITION TIME TEMP WIND PRES WAVE SWELL AIR SEA DIR/SP/G HT/PER HT/PER/DIR (UTC) (F) (DEG/KT/KT) (MB) (FT/S) (FT/S/D) 5E ST. MARYS GA 0551 56 N/A 2/ 5 FRYING PAN BUOY 0600 44 52 330/ 12/ 14 1017.0R BUOY 41025 0550 43 71 310/ 21/ 25 1015.9R 5/ 8 3/ 70/ 8 CAPE LOOKOUT NC NOT AVBL BUOY 41002 0550 62 68 320/ 23/ 31 N/A 14/ 9 10/270/ 9 BUOY 41010 0520 71 72 1019.6F ST AUGUSTINE FL 0600 60 58 250/ 8/ 10 1021.3F $$

USA.gov is the U.S. government's official web portal to all federal, state and local government web resources and services.